GSAT0213 (PRN E04)

Last updated on Oct. 24, 2020, 5:55 a.m. UTC

1 41861U 16069C   20297.53701880  .00000020  00000-0  00000-0 0  9996
2 41861  54.6693 158.2886 0001540 283.1714  76.8981  1.70473179 24496
UTC
Height (km)
Latitude
Longitude
Inclination
Orbital Period
UTC large
Height (km)
Speed (km/s)
/
Latitude / Longitude
Inclination (degrees)
Orbital Period (minutes)
Azimuth
Elevation
Range (km)
Doppler Factor
iOS Compass Heading
iOS Angle

Next 30 passes for location: Hong Kong

Rise time Rise Azimuth (degrees) Set time Set Azimuth (degrees) Duration Max altitude (degrees)

No matching passes for this satellites